Location: Lane
(33.5226°N, 79.8788°W)
Time: 16:50:44
(UTC+00:00)

Transit 2A - Pass Details

Date: 29 September 2022
Orbit: 598 x 959 km, 66.7° (Epoch: 06 December)

Event Time Altitude Azimuth Distance (km) Brightness Sun altitude
Rises 06:08:46 0° 254° (WSW) 2,934 - -56.0°
Reaches altitude 10° 06:12:35 10° 287° (WNW) 1,975 - -55.6°
Maximum altitude 06:14:12 12° 308° (NW) 1,846 - -55.5°
Drops below altitude 10° 06:15:48 10° 330° (NNW) 1,950 - -55.3°
Sets 06:19:31 0° 3° (N) 2,844 - -54.9°
